SCP
0 0 0 0 0 0 0 0 0 0 0 0 0 0 0 0 0 0 0 0 0 0 0 0 0 0 0 0 0 0 0 0 0 0 0 0 0 0
0 0 0 0 0 0 0 0 0 0 0 0 0 0 0 0 0 0 0 0 0 0 0 0 0 0 0 0 0 0 0 0 0 0 0 0 0 0
0 0 0 0 0 0 0 0 0 0 0 0 0 0 0 0 0 0 0 0 0 0 0 0 0 0 0 0 0 0 0 0 0 0 0 0 0 0
0 0 0 0 0 0 0 0 0 0 0 0 0 0 0 0 0 0 0 0 0 0 0 0 0 0 0 0 0 0 0 0 0 0 0 0 0 0
0 0 0 0 0 0 0 0 0 0 0 0 0 0 0 0 0 0 0 0 0 0 0 0 0 0 0 0 0 0 0 0 0 0 0 0 0 0
0 0 0 0 0 0 0 0 0 0 0 0 0 0 0 0 0 0 0 0 0 0 0 0 0 0 0 0 0 0 0 0 0 0 0 0 0 0
0 0 0 0 0 0 0 0 0 0 0 0 0 0 0 0 0 0 0 0 0 0 0 0 0 0 0 0 0 0 0 0 0 0 0 0 0 0
0 0 0 0 0 0 0 0 0 0 0 0 0 0 0 0 0 0 0 0 0 0 0 0 0 0 0 0 0 0 0 0 0 0 0 0 0 0
0 0 0 0 0 0 0 0 0 0 0 0 0 0 0 0 0 0 0 0 0 0 0 0 0 0 0 0 0 0 0 0 0 0 0 0 0 0
0 0 0 0 0 0 0 0 0 0 0 0 0 0 0 0 0 0 0 0 0 0 0 0 0 0 0 0 0 0 0 0 0 0 0 0 0 0
0 0 0 0 0 0 0 0 0 0 0 0 0 0 0 0 0 0 0 0 0 0 0 0 0 0 0 0 0 0 0 0 0 0 0 0 0 0
0 0 0 0 0 0 0 0 0 0 0 0 0 0 0 0 0 0 0 0 0 0 0 0 0 0 0 0 0 0 0 0 0 0 0 0 0 0
0 0 0 0 0 0 0 0 0 0 0 0 0 0 0 0 0 0 0 0 0 0 0 0 0 0 0 0 0 0 0 0 0 0 0 0 0 0
0 0 0 0 0 0 0 0 0 0 0 0 0 0 0 0 0 0 0 0 0 0 0 0 0 0 0 0 0 0 0 0 0 0 0 0 0 0
0 0 0 0 0 0 0 0 0 0 0 0 0 0 0 0 0 0 0 0 0 0 0 0 0 0 0 0 0 0 0 0 0 0 0 0 0 0
0 0 0 0 0 0 0 0 0 0 0 0 0 0 0 0 0 0 0 0 0 0 0 0 0 0 0 0 0 0 0 0 0 0 0 0 0 0
0 0 0 0 0 0 0 0 0 0 0 0 0 0 0 0 0 0 0 0 0 0 0 0 0 0 0 0 0 0 0 0 0 0 0 0 0 0
0 0 0 0 0 0 0 0 0 0 0 0 0 0 0 0 0 0 0 0 0 0 0 0 0 0 0 0 0 0 0 0 0 0 0 0 0 0
0 0 0 0 0 0 0 0 0 0 0 0 0 0 0 0 0 0 0 0 0 0 0 0 0 0 0 0 0 0 0 0 0 0 0 0 0 0
0 0 0 0 0 0 0 0 0 0 0 0 0 0 0 0 0 0 0 0 0 0 0 0 0 0 0 0 0 0 0 0 0 0 0 0 0 0
0 0 0 0 0 0 0 0 0 0 0 0 0 0 0 0 0 0 0 0 0 0 0 0 0 0 0 0 0 0 0 0 0 0 0 0 0 0
0 0 0 0 0 0 0 0 0 0 0 0 0 0 0 0 0 0 0 0 0 0 0 0 0 0 0 0 0 0 0 0 0 0 0 0 0 0
0 0 0 0 0 0 0 0 0 0 0 0 0 0 0 0 0 0 0 0 0 0 0 0 0 0 0 0 0 0 0 0 0 0 0 0 0 0
Wind_Speed
2 2 2 2 2 2 2 1 2 3 3 2 1 0 1 2 4 3 3 6 7 6 5 4 4 4 4 4 3 3 4 4 4 4 4 4 5 5
2 1 1 2 2 2 2 2 1 2 3 2 1 1 0 1 4 3 3 6 6 6 5 5 4 4 3 3 3 3 3 3 3 3 3 3 3 4
2 2 2 2 1 2 2 2 2 2 3 3 1 1 1 1 2 1 3 3 3 6 5 5 4 4 3 2 2 1 2 2 2 2 3 3 3 3
2 2 2 2 1 2 2 2 2 2 2 2 1 1 1 1 1 1 1 1 2 6 6 6 5 5 5 4 3 2 2 1 1 1 1 1 1 1
0 1 1 1 1 1 2 2 2 2 1 1 1 0 0 1 1 1 2 2 2 5 6 7 6 6 6 5 5 4 4 3 3 3 3 2 2 2
1 2 2 2 2 2 2 2 2 2 1 0 1 1 1 0 1 1 1 1 1 2 4 5 7 7 7 7 7 6 6 5 5 5 4 4 4 4
2 3 4 5 6 4 3 3 3 2 1 1 1 1 1 1 1 0 0 0 1 2 2 2 3 3 3 5 6 6 6 6 6 6 6 6 5 4
3 3 4 5 6 7 9 9 7 4 2 2 2 2 2 2 1 0 0 1 0 1 1 1 2 2 2 3 5 6 5 5 5 5 5 5 5 4
4 3 3 4 5 3 6 7 8 9 6 3 3 3 2 3 2 2 1 1 1 0 0 1 2 2 2 4 6 6 5 5 4 4 4 3 3 2
5 4 4 4 4 4 4 5 6 6 6 5 4 4 4 3 2 1 1 1 2 2 2 1 1 2 2 2 3 4 3 3 3 3 2 1 0 0
6 7 6 5 7 6 4 5 4 4 6 7 7 6 7 9 6 3 2 1 1 2 3 2 1 1 2 1 2 3 3 2 1 1 1 1 2 1
5 6 9 7 8 6 4 4 4 3 3 4 4 5 4 6 8 6 4 2 2 2 3 2 1 1 1 1 1 2 1 2 3 3 2 2 2 1
4 4 5 8 8 8 6 4 3 2 2 3 3 3 4 4 5 5 5 4 3 2 2 2 1 1 1 0 0 1 1 1 2 2 3 3 3 1
4 4 4 7 8 7 5 5 5 4 2 3 3 4 4 4 3 4 4 4 3 3 2 2 1 1 1 1 0 0 0 0 0 0 1 1 2 1
4 5 4 4 5 3 4 4 4 2 2 3 4 3 3 2 2 2 3 2 2 3 3 2 2 2 1 1 1 0 0 0 0 0 0 0 1 1
3 4 4 4 3 3 3 3 2 3 3 3 3 2 2 2 2 2 2 1 2 2 3 3 3 3 2 2 1 1 1 1 1 1 1 1 1 1
2 2 2 2 3 3 3 4 4 4 4 3 3 3 2 2 2 2 2 2 2 2 2 2 2 1 2 2 2 2 2 1 1 1 1 1 1 1
4 3 3 4 4 4 4 4 4 4 4 3 3 3 3 3 3 3 3 3 3 3 3 2 2 2 2 3 4 3 3 2 2 2 1 1 1 1
3 3 4 4 4 4 4 4 4 4 3 3 3 3 3 3 3 3 3 3 3 2 2 2 2 3 3 2 2 2 2 2 2 2 2 1 1 0
3 3 4 3 3 4 4 4 3 3 3 3 3 3 3 3 3 2 2 3 3 2 2 2 2 2 2 2 1 1 1 1 1 2 2 2 1 1
3 3 3 3 3 3 3 3 3 3 3 2 3 2 2 2 2 2 2 2 2 2 3 2 2 3 3 2 1 1 1 3 3 2 2 2 2 1
3 3 3 3 3 3 3 2 2 2 2 2 2 2 2 2 2 3 2 2 2 2 3 2 2 2 2 2 2 1 1 2 4 6 7 5 2 2
3 3 3 3 3 2 2 3 3 3 2 3 2 2 2 2 2 2 3 3 3 3 3 3 2 2 3 3 2 2 2 2 2 2 3 8 11 12
Wind_Direction
231 232 250 273 276 276 279 270 257 279 282 293 283 173 139 114 137 155 137 157 167 173 175 178 187 200 209 217 224 228 231 233 232 232 231 233 235 243
225 230 243 270 277 283 286 288 265 247 267 274 284 311 71 121 139 149 130 135 152 160 163 164 166 172 172 182 196 204 207 207 208 211 215 220 225 234
241 231 242 265 297 312 309 300 289 269 264 278 296 7 29 51 104 134 131 136 136 149 149 147 144 133 126 122 134 165 182 189 198 205 212 213 212 214
241 248 243 253 258 300 310 305 301 300 272 279 309 346 354 16 90 120 119 140 115 125 130 121 109 101 94 87 82 81 88 106 112 114 145 166 183 198
294 303 309 308 320 315 310 308 304 300 299 271 268 265 345 348 54 68 61 58 74 99 107 102 99 96 91 86 81 74 72 76 80 80 75 71 76 82
36 40 32 24 2 332 324 323 315 328 346 336 299 351 33 11 82 103 63 81 86 85 85 100 101 95 89 86 81 78 75 72 70 70 71 72 71 68
56 61 64 62 55 43 28 12 2 7 6 29 39 39 24 18 347 304 73 119 86 95 110 103 99 94 91 87 84 82 80 78 76 74 72 73 71 68
56 60 75 68 68 74 68 57 46 36 18 28 32 37 17 3 339 342 140 236 171 99 116 104 108 98 90 84 89 95 93 90 88 84 81 79 74 73
53 45 48 51 51 65 76 65 53 49 52 57 48 29 17 1 341 332 343 3 19 10 94 119 107 93 91 92 96 92 91 93 96 97 96 94 91 88
49 48 60 48 43 48 75 79 67 49 52 66 66 47 31 5 349 341 335 76 77 36 23 88 86 85 89 98 110 109 105 99 93 85 75 84 137 241
55 47 48 54 39 47 78 88 85 81 69 75 74 66 50 37 30 29 21 56 71 45 20 35 39 81 96 109 146 159 151 153 166 201 249 274 288 282
70 58 54 50 33 35 59 76 74 61 69 72 67 54 51 46 40 36 26 33 59 54 19 26 19 12 81 111 123 152 173 218 223 236 249 264 281 265
75 64 51 48 44 43 54 57 51 36 55 80 79 65 54 49 46 42 36 43 55 53 20 18 13 352 5 28 222 196 186 196 195 223 235 244 254 237
71 73 67 60 55 45 49 37 34 38 54 68 71 64 56 47 46 52 51 50 59 80 49 26 10 352 350 356 348 299 216 234 129 172 192 198 223 233
74 79 71 64 59 55 48 39 42 51 59 71 69 63 57 45 39 49 44 40 52 62 69 41 28 15 354 346 5 27 15 353 49 19 8 166 196 177
92 96 86 65 55 41 43 43 50 44 50 66 65 59 56 55 45 38 37 33 55 55 45 40 33 33 14 10 24 28 30 11 7 39 27 349 356 94
65 82 76 71 69 66 61 52 53 48 43 45 53 52 48 43 42 32 17 15 34 46 40 13 14 31 56 29 25 21 14 19 18 11 349 344 343 77
56 56 61 59 61 64 65 66 60 48 35 38 43 39 38 41 42 36 25 26 29 37 38 17 3 354 4 42 32 16 12 6 347 337 341 354 4 43
60 63 63 59 57 59 61 61 63 53 35 38 36 32 31 36 43 39 32 23 17 14 30 26 15 8 359 10 358 359 1 350 344 344 345 344 329 248
68 66 70 69 63 59 62 62 63 57 40 39 43 30 22 26 29 29 36 14 355 355 15 31 27 13 349 333 319 294 262 321 344 330 327 326 331 349
75 72 68 68 66 61 57 57 56 57 44 34 40 22 13 17 18 10 19 11 341 351 14 22 339 300 276 290 299 300 249 215 223 243 291 304 307 296
70 74 69 65 60 57 57 50 54 54 37 25 26 5 357 358 360 3 3 352 360 10 2 338 296 305 309 319 321 305 279 253 245 245 243 238 243 267
72 70 70 67 65 52 47 52 46 39 27 10 6 353 350 350 341 357 360 353 354 357 350 339 333 319 311 308 316 318 310 297 268 249 252 240 238 246